Regional Weather Roundup
Issued by NWS

Home | Current Version | Previous Version | Graphics & Text | Print | Product List | Glossary On
Versions: 1 2 3 4 5 6 7 8 9 10 11 12 13 14 15 16 17 18 19 20 21 22 23 24 25 26 27 28 29 30 31 32 33 34 35 36 37 38 39 40 41 42 43 44 45 46 47 48 49 50
000
ASUS43 KMKX 290100
RWRWI

WISCONSIN REGIONAL WEATHER ROUNDUP
NATIONAL WEATHER SERVICE MILWAUKEE/SULLIVAN WI
800 PM CDT TUE MAR 28 2017

NOTE: "FAIR" INDICATES FEW OR NO CLOUDS BELOW 12,000 FEET WITH NO
SIGNIFICANT WEATHER AND/OR OBSTRUCTIONS TO VISIBILITY.

WIZ001-002-006>008-014>016-023>028-290200-
NORTHWEST WISCONSIN

CITY           SKY/WX    TMP DP  RH WIND       PRES   REMARKS
SUPERIOR ARPT  PTCLDY    36  33  92 NE8       30.20R WCI  29
ASHLAND        CLEAR     33  31  92 N7        30.21R WCI  27
HAYWARD        CLEAR     50  25  37 NE9       30.17R
SIREN          CLEAR     53  20  28 CALM      30.15R
CUMBERLAND     CLEAR     50  32  50 CALM      30.15S
RICE LAKE      CLEAR     53  25  34 CALM      30.17R
CHETEK         CLEAR     50  28  41 CALM      30.16R
LADYSMITH      CLEAR     54  25  32 CALM      30.17R
EAU CLAIRE     NOT AVBL
MENOMONIE      CLEAR     56  27  33 E5        30.15S
NEW RICHMOND   CLEAR     54  29  37 CALM      30.16R
OSCEOLA        CLEAR     56  27  32 CALM      30.18R
$$

WIZ003>005-009-010-017-018-290200-
NORTH CENTRAL WISCONSIN

CITY           SKY/WX    TMP DP  RH WIND       PRES   REMARKS
MANITOWISH WTR CLEAR     46  28  49 NE3       30.17R
ARBOR VITAE    CLEAR     50  28  41 N6        30.16R
WOODRUFF       CLEAR     50  28  41 N6        30.16R
RHINELANDER    CLEAR     48  23  37 NE3       30.16S
EAGLE RIVER    CLEAR     44  26  49 CALM      30.17R
LAND O LAKES   CLEAR     48  27  44 N6        30.19R
PHILLIPS       CLEAR     49  24  37 CALM      30.14S
TOMAHAWK       CLEAR     46  28  50 CALM      30.16S
MEDFORD        CLEAR     49  33  55 S3        30.15F
MERRILL        CLEAR     48  29  46 CALM      30.17R
$$

WIZ029-030-035-036-043>047-290200-
CENTRAL WISCONSIN

CITY           SKY/WX    TMP DP  RH WIND       PRES   REMARKS
WAUSAU         CLEAR     50  27  40 S5        30.15R
MOSINEE        CLEAR     52  27  37 VRB6      30.17R
MARSHFIELD     CLEAR     49  35  58 CALM      30.16R
STEVENS POINT  CLEAR     49  30  48 E6        30.18R
WAUPACA        CLEAR     50  30  46 E6        30.20R
WAUTOMA        CLEAR     50  30  46 E3        30.20R
WISC RAPIDS    CLEAR     50  29  44 SE6       30.19R
CAMP DOUGLAS   NOT AVBL
$$

WIZ011>013-019>022-031-037>040-048>050-290200-
NORTHEAST WISCONSIN

CITY           SKY/WX    TMP DP  RH WIND       PRES   REMARKS
ANTIGO         CLEAR     46  34  63 SE9       30.18R
SHAWANO        CLEAR     47  29  51 CALM      30.20R
OCONTO         CLEAR     39  35  84 CALM      30.21R
STURGEON BAY   CLEAR     35  33  92 CALM      30.19R
GREEN BAY      CLEAR     42  37  82 E5        30.21R
MANITOWOC      NOT AVBL
APPLETON       PTCLDY    46  28  49 NE7       30.18R
CLINTONVILLE   CLEAR     46  28  49 SE6       30.20R
OSHKOSH        CLEAR     46  36  68 NE6       30.19R
$$

WIZ032>034-041-042-053>061-290200-
SOUTHWEST WISCONSIN

CITY           SKY/WX    TMP DP  RH WIND       PRES   REMARKS
LA CROSSE      CLEAR     52  39  61 CALM      30.15R
SPARTA         CLEAR     53  34  49 CALM      30.17R
VIROQUA        CLEAR     50  37  61 CALM      30.15R
BOSCOBEL       CLEAR     50  38  63 CALM      30.15R
PRAIRIE DU CHI CLEAR     51  39  62 CALM      30.14S
PLATTEVILLE    CLEAR     48  42  79 CALM      30.15R
$$

WIZ056-057-062-063-064-067-068-290200-
SOUTH CENTRAL WISCONSIN

CITY           SKY/WX    TMP DP  RH WIND       PRES   REMARKS
REEDSBURG      CLEAR     52  33  46 E3        30.16R
BARABOO/DELLS  CLEAR     50  33  52 E5        30.16S
LONE ROCK      NOT AVBL
MINERAL POINT  CLEAR     52  37  58 E3        30.14S
MADISON        CLEAR     48  37  65 NE7       30.16R
MIDDLETON      CLEAR     51  39  65 E6        30.17R
WATERTOWN      CLEAR     44  40  85 E7        30.17R
MONROE         CLEAR     50  37  62 NE5       30.15R
JANESVILLE     PTCLDY    48  37  66 E13       30.17R
$$

WIZ051-052-058>065-066-070>072-290200-
SOUTHEAST WISCONSIN

CITY           SKY/WX    TMP DP  RH WIND       PRES   REMARKS
MILWAUKEE      FOG       36  34  92 NE9       30.21R VSB 1/8 WCI  29
WAUKESHA       MOCLDY    36  34  93 NE6       30.20R FOG     WCI  31
MILWAUKEE/TIMM CLOUDY    34  34 100 NE6       30.22R VSB 1/2 WCI  29
RACINE         FOG       35  33  92 N7        30.22R VSB 1/4 WCI  29
KENOSHA        MOCLDY    35  33  92 N6        30.20R FOG     WCI  30
FOND DU LAC    CLEAR     45  32  60 NE5       30.19R
SHEBOYGAN      FOG       34  33  96 NE5       30.21R VSB 1/4 WCI  30
WEST BEND      CLEAR     36  36 100 SE5       30.20R FOG     WCI  32
JUNEAU         CLEAR     48  40  72 NE3       30.19R
$$

LSZ147-162-290200-
LAKE SUPERIOR

STATION/POSITION TIME  TEMP    WIND        PRES    WAVE
                       AIR SEA DIR/SP/G            HT/PER
                 (UTC) (F)     (DEG/KT/KT) (MB)    (FT/S)
DEVILS ISLAND    0000   36      80/ 12/ 12 1023.4R
PORT WING        0030   37      10/ 13/ 15 1022.0R
SAXON HARBOR     0040   36     240/  3/  5 1022.0R
$$

LMZ867-665-643>646-290200-
LAKE MICHIGAN

STATION/POSITION TIME  TEMP    WIND        PRES    WAVE
                       AIR SEA DIR/SP/G            HT/PER
                 (UTC) (F)     (DEG/KT/KT) (MB)    (FT/S)
CHAMBERS ISLAND  0030   32      CALM  /  1 1022.7R
NORTHPORT PIER   0040   32        CALM     1022.7S
SISTER BAY       0006   38        CALM       N/A
KEWAUNEE LAKESHO 0030   32     350/  1/  5 1022.7S
SHEBOYGAN LAKESH 0000   34      10/ 14/ 15 1023.2R
PORT WASHINGTON  0030   35      60/  7/  8 1024.0R
MILWAUKEE LAKESH 0030   35      40/ 10/ 11   N/A
KENOSHA   LAKESH 0000   34      20/ 12/ 13 1022.0
$$

TC  - TEMPERATURE IN CELSIUS
VSB - VISIBILITY IN STATUTE MILES
WCI - WIND CHILL INDEX
HX  - HEAT INDEX





USA.gov is the U.S. government's official web portal to all federal, state and local government web resources and services.